Waarnemingen

Advertentie
Mijn weer
Trier-Petrisberg, Duitsland (10609): temperatuur & dauwpunt: 14.08.2017 00:00:00 - 20.08.2017 00:00:00 (CEST)Trier-Petrisberg, Duitsland (10609): temperatuur 5cm & temperatuur -5cm: 14.08.2017 00:00:00 - 20.08.2017 00:00:00 (CEST)Trier-Petrisberg, Duitsland (10609): temperatuur -20cm & temperatuur -100cm: 14.08.2017 00:00:00 - 20.08.2017 00:00:00 (CEST)Trier-Petrisberg, Duitsland (10609): windsnelheid & windstoten: 14.08.2017 00:00:00 - 20.08.2017 00:00:00 (CEST)Trier-Petrisberg, Duitsland (10609): windrichting: 14.08.2017 00:00:00 - 20.08.2017 00:00:00 (CEST)Trier-Petrisberg, Duitsland (10609): luchtdruk: 14.08.2017 00:00:00 - 20.08.2017 00:00:00 (CEST)Trier-Petrisberg, Duitsland (10609): zicht: 14.08.2017 00:00:00 - 20.08.2017 00:00:00 (CEST)Trier-Petrisberg, Duitsland (10609): Zonneschijnduur: 14.08.2017 00:00:00 - 20.08.2017 00:00:00 (CEST)Trier-Petrisberg, Duitsland (10609): neerslag: 14.08.2017 00:00:00 - 20.08.2017 00:00:00 (CEST)
Datum & Tijd tt [°C] td [°C] tt 5cm [°C] tt -5cm [°C] tt -20cm [°C] tt -100cm [°C] ff [km/u] ff [kn] fx [km/u] fx [kn] dd ppp [hPa] vv [km] sd [min] rr [mm]
20.08.2017 00:00:00 12,4 11,3 11,0 16,2 19,7 19,6 7 4 12 7 ZW 1022,4 39 0 0,0
19.08.2017 23:00:00 12,8 11,6 11,6 16,8 19,9 19,6 8 5 17 9 ZW 1022,3 47 0 0,0
19.08.2017 22:00:00 13,1 11,1 11,3 17,7 20,1 19,6 11 6 23 13 ZW 1022,1 52 0 0,0
19.08.2017 21:00:00 13,9 11,1 12,4 19,0 20,3 19,6 10 5 25 13 ZW 1021,4 58 29 0,0
19.08.2017 20:00:00 15,3 11,6 15,0 20,0 20,3 19,7 18 10 35 19 ZW 1020,7 49 0 0,0
19.08.2017 19:00:00 16,7 10,5 16,8 21,3 20,2 19,7 17 9 28 15 W 1020,4 62 1 0,0
19.08.2017 18:00:00 17,4 10,8 18,3 22,1 20,1 19,7 19 10 37 20 ZW 1020,2 66 9 0,0
19.08.2017 17:00:00 17,1 11,9 18,3 22,5 19,8 19,7 16 8 36 19 ZW 1020,0 58 0 0,0
19.08.2017 16:00:00 17,4 9,5 18,8 24,0 19,4 19,8 16 9 37 20 ZW 1019,8 63 34 0,0
19.08.2017 15:00:00 18,4 10,6 21,5 22,2 19,1 19,8 23 12 37 20 ZZW 1019,8 62 13 0,0
19.08.2017 14:00:00 17,0 9,2 18,9 21,9 18,8 19,8 24 13 37 20 ZW 1020,0 68 0 0,0
19.08.2017 13:00:00 16,2 10,0 17,7 21,5 18,5 19,8 16 9 34 18 WZW 1019,9 61 9 0,0
19.08.2017 12:00:00 16,9 10,2 19,2 21,3 18,1 19,8 23 13 35 19 ZW 1019,7 59 40 0,0
19.08.2017 11:00:00 17,0 10,3 17,3 18,9 17,9 19,9 21 11 35 19 ZW 1019,5 58 58 0,0
19.08.2017 10:00:00 15,2 11,3 14,7 15,9 18,0 19,9 17 9 26 14 ZW 1019,7 56 54 0,0
19.08.2017 09:00:00 13,4 11,2 12,7 13,8 18,2 19,9 12 6 19 11 ZW 1019,5 41 60 0,0
19.08.2017 08:00:00 10,7 10,4 9,8 13,7 18,4 19,9 8 4 11 6 ZW 1019,3 17 41 0,0
19.08.2017 07:00:00 10,3 9,9 8,7 14,0 18,7 19,9 5 3 16 8 ZZW 1019,0 15 0 0,0
19.08.2017 06:00:00 10,9 10,4 9,9 14,6 18,9 19,9 9 5 16 9 ZW 1018,7 19 0 0,0
19.08.2017 05:00:00 11,6 11,3 11,6 14,9 19,2 19,9 8 4 15 8 ZW 1018,4 0,2 0 0,0
19.08.2017 04:00:00 11,6 11,1 10,4 15,2 19,4 19,9 9 5 16 9 ZW 1017,9 0,9 0 0,0
19.08.2017 03:00:00 12,1 11,7 11,7 15,5 19,7 19,9 10 6 16 9 WZW 1017,8 0,6 0 0,0
19.08.2017 02:00:00 11,7 11,2 10,7 16,0 19,9 20,0 3 2 10 6 Z 1018,0 16 0 0,0
19.08.2017 01:00:00 12,0 11,4 10,4 16,8 20,2 20,0 5 3 10 6 ZZO 1017,5 29 0 0,0
19.08.2017 00:00:00 13,2 11,6 12,3 17,8 20,3 20,0 7 4 21 12 Z 1016,7 49 0 0,0
18.08.2017 23:00:00 15,4 13,1 14,6 18,3 20,5 20,0 18 10 38 21 W 1016,4 43 0 0,5
18.08.2017 22:00:00 16,1 14,8 15,9 18,9 20,6 20,0 13 7 24 13 WZW 1015,8 54 0 0,0
18.08.2017 21:00:00 16,1 15,0 16,2 19,3 20,7 20,0 11 6 31 17 ZZW 1015,2 55 0 0,0
18.08.2017 20:00:00 16,5 15,1 16,4 19,8 20,7 20,0 16 8 24 13 ZW 1014,2 56 0 0,0
18.08.2017 19:00:00 16,7 15,8 17,2 19,9 20,8 20,0 14 8 23 13 ZZW 1014,1 49 0 0,0
18.08.2017 18:00:00 16,7 15,9 17,1 20,0 20,9 20,0 14 7 26 14 ZZW 1014,1 37 0 0,8
18.08.2017 17:00:00 16,5 15,6 16,7 20,2 21,0 20,0 10 5 18 10 WZW 1014,5 5 0 1,7
18.08.2017 16:00:00 17,0 16,2 17,4 20,4 21,1 20,0 8 5 39 21 ZZW 1013,9 16 0 2,9
18.08.2017 15:00:00 16,8 16,1 16,9 21,1 21,0 20,0 19 11 33 18 W 1014,1 4,8 0 8,0
18.08.2017 14:00:00 19,0 15,7 18,5 22,6 20,9 20,0 10 5 24 13 W 1013,1 30 0 0,0
18.08.2017 13:00:00 19,6 15,5 20,9 22,1 20,8 20,0 12 6 29 16 ZW 1013,3 59 2 0,0
18.08.2017 12:00:00 21,2 17,2 23,1 22,0 20,6 20,0 18 10 31 17 ZZW 1013,7 59 0 0,0
18.08.2017 11:00:00 19,8 17,0 20,4 20,6 20,6 20,0 20 11 31 17 ZZW 1014,5 53 0 0,1
18.08.2017 10:00:00 19,2 16,7 19,2 19,8 20,7 20,0 14 8 29 15 ZW 1014,5 52 0 0,0
18.08.2017 09:00:00 19,1 16,9 19,0 19,5 20,8 20,0 16 9 37 20 ZW 1014,4 53 0 0,0
18.08.2017 08:00:00 18,7 16,5 18,2 19,3 20,9 20,0 21 12 - - ZZW 1015,0 54 0 0,0
18.08.2017 07:00:00 18,3 16,4 17,7 19,1 21,0 20,0 13 7 25 14 ZW 1014,5 50 0 0,0
18.08.2017 06:00:00 18,4 16,4 17,5 19,4 21,1 20,0 13 7 20 11 ZW 1014,8 51 0 0,0
18.08.2017 05:00:00 17,9 16,5 17,6 19,4 21,3 20,0 11 6 16 8 WZW 1015,2 39 0 0,0
18.08.2017 04:00:00 17,9 16,5 17,4 19,4 21,5 19,9 5 3 10 6 WZW 1015,3 45 0 0,0
18.08.2017 03:00:00 17,8 16,7 17,3 19,5 21,7 19,9 7 4 13 7 ZZW 1015,9 32 0 0,0
18.08.2017 02:00:00 18,0 16,7 17,1 19,7 21,9 19,9 9 5 15 8 ZW 1016,0 32 0 0,0
18.08.2017 01:00:00 17,5 16,5 17,1 20,1 22,1 19,9 5 3 6 3 ZZO 1016,8 34 0 0,0
18.08.2017 00:00:00 17,7 16,5 17,0 20,4 22,4 19,9 0 0 9 5 N 1017,1 41 0 0,0
17.08.2017 23:00:00 17,5 16,7 16,7 20,9 22,6 19,9 6 4 9 5 ZO 1017,2 30 0 0,0
17.08.2017 22:00:00 18,3 17,0 16,7 21,8 22,8 19,9 3 2 6 3 W 1017,4 41 0 0,0
17.08.2017 21:00:00 18,9 17,5 18,3 23,0 22,9 19,9 4 2 8 4 OZO 1017,0 43 9 0,0
17.08.2017 20:00:00 19,9 17,5 19,6 23,9 23,0 19,9 4 2 11 6 Z 1017,0 46 0 0,0
17.08.2017 19:00:00 19,3 17,0 19,4 24,4 23,1 19,9 6 3 20 11 ZO 1017,0 44 0 0,0
17.08.2017 18:00:00 18,6 16,6 19,0 25,3 23,1 19,9 15 8 36 19 ZZW 1017,9 35 0 0,4
17.08.2017 17:00:00 20,1 15,5 19,8 27,1 22,8 19,9 24 13 39 21 ZZW 1017,8 8 0 0,0
17.08.2017 16:00:00 22,1 13,2 23,7 28,8 22,3 19,9 28 15 47 26 ZW 1017,1 60 0 0,0
17.08.2017 15:00:00 23,0 10,5 23,9 30,6 21,7 19,9 24 13 48 26 WZW 1016,9 70 27 0,0
17.08.2017 14:00:00 25,6 15,1 30,4 28,8 21,1 19,9 27 14 50 27 ZZW 1016,5 63 56 0,0
17.08.2017 13:00:00 24,2 14,5 27,8 25,7 20,7 19,9 23 12 44 24 ZW 1016,8 61 50 0,0
17.08.2017 12:00:00 22,2 15,5 24,6 23,4 20,4 19,9 18 10 32 17 ZW 1017,5 54 8 0,0
17.08.2017 11:00:00 20,2 17,1 21,5 21,7 20,3 19,9 10 5 14 8 ZZW 1017,9 31 17 0,0
17.08.2017 10:00:00 16,5 15,2 18,0 19,5 20,3 19,9 2 1 7 4 ZZW 1018,3 7 5 0,0
17.08.2017 09:00:00 15,4 14,7 16,0 18,8 20,4 19,9 4 2 6 4 W 1018,4 7 0 0,0
17.08.2017 08:00:00 14,7 14,3 15,3 18,1 20,5 19,9 0 0 8 4 N 1018,4 0,2 0 0,0
17.08.2017 07:00:00 14,3 14,1 14,6 17,8 20,7 19,8 5 3 9 5 NNW 1018,6 0,3 0 0,0
17.08.2017 06:00:00 14,8 14,4 15,0 17,8 21,0 19,8 0 0 4 2 N 1018,9 0,3 0 0,0
17.08.2017 05:00:00 14,7 14,3 14,6 17,6 21,3 19,8 3 2 7 4 ONO 1019,0 1,7 0 0,0
17.08.2017 04:00:00 14,5 13,8 13,0 18,0 21,6 19,8 3 1 5 3 OZO 1019,0 13 0 0,0
17.08.2017 03:00:00 15,4 14,9 13,4 18,5 21,9 19,8 0 0 6 3 N 1019,1 10 0 0,0
17.08.2017 02:00:00 15,8 15,2 14,2 19,2 22,2 19,8 3 1 6 3 ZO 1019,5 22 0 0,0
17.08.2017 01:00:00 16,4 15,5 14,3 19,9 22,6 19,8 4 2 9 5 ZW 1019,7 19 0 0,0
17.08.2017 00:00:00 16,8 15,4 15,0 20,7 22,9 19,7 6 4 10 6 ZO 1020,0 32 0 0,0
16.08.2017 23:00:00 17,4 15,3 15,6 21,8 23,1 19,7 4 2 8 5 ZZO 1020,3 37 0 0,0
16.08.2017 22:00:00 19,0 15,9 16,8 23,1 23,3 19,7 7 4 9 5 ZO 1020,2 47 0 0,0
16.08.2017 21:00:00 20,3 15,7 18,8 24,7 23,3 19,7 3 1 11 6 Z 1019,6 49 9 0,0
16.08.2017 20:00:00 22,2 14,9 21,8 26,4 23,2 19,7 8 4 14 8 ZW 1019,4 56 16 0,0
16.08.2017 19:00:00 22,9 15,1 23,5 28,0 22,9 19,7 7 4 16 9 ZW 1019,2 54 21 0,0
16.08.2017 18:00:00 24,8 14,8 26,2 28,9 22,6 19,7 11 6 15 8 ZW 1019,2 48 57 0,0
16.08.2017 17:00:00 24,2 15,1 27,9 27,1 22,2 19,7 6 4 11 6 ZZW 1019,4 51 11 0,0
16.08.2017 16:00:00 23,2 15,3 25,1 27,7 21,8 19,7 6 3 14 8 Z 1020,0 49 5 0,0
16.08.2017 15:00:00 23,3 14,7 26,4 27,7 21,4 19,7 9 5 15 8 Z 1020,2 53 30 0,0
16.08.2017 14:00:00 23,3 15,1 25,8 27,1 20,9 19,8 3 2 9 5 WZW 1020,4 54 39 0,0
16.08.2017 13:00:00 21,3 15,2 21,7 25,5 20,5 19,8 4 2 11 6 WNW 1020,7 53 23 0,0
16.08.2017 12:00:00 21,5 14,5 22,5 23,8 20,2 19,7 5 3 11 6 NO 1021,1 47 36 0,0
16.08.2017 11:00:00 19,3 15,3 20,4 21,7 20,1 19,7 4 2 9 5 WZW 1022,0 46 0 0,0
16.08.2017 10:00:00 18,6 14,1 18,6 20,3 20,1 19,7 1 1 7 4 ONO 1021,7 40 15 0,0
16.08.2017 09:00:00 17,6 16,0 17,8 18,9 20,2 19,7 5 3 9 5 ZO 1021,6 24 4 0,0
16.08.2017 08:00:00 16,3 15,6 16,0 18,1 20,3 19,7 2 1 7 4 ZO 1021,6 9 19 0,0
16.08.2017 07:00:00 16,1 15,5 16,0 18,1 20,5 19,7 0 0 7 4 N 1021,4 10 0 0,0
16.08.2017 06:00:00 16,2 15,8 16,0 18,2 20,6 19,7 4 2 9 5 W 1021,0 3,7 0 0,0
16.08.2017 05:00:00 16,4 15,8 16,2 18,6 20,8 19,7 7 4 14 8 WZW 1020,9 9 0 0,0
16.08.2017 04:00:00 16,2 15,6 15,4 18,9 21,0 19,7 7 4 9 5 ZZW 1020,5 9 0 0,0
16.08.2017 03:00:00 16,4 15,7 16,1 19,0 21,2 19,7 4 2 13 7 ZZO 1020,5 29 0 0,0
16.08.2017 02:00:00 16,6 16,0 16,6 19,5 21,4 19,7 9 5 13 7 ZZW 1020,5 22 0 0,0
16.08.2017 01:00:00 17,0 15,9 16,7 19,9 21,6 19,7 10 6 22 12 WZW 1020,5 37 0 0,3
16.08.2017 00:00:00 17,1 15,5 16,7 20,3 21,8 19,7 18 10 25 14 ZZW 1019,3 36 0 0,3
15.08.2017 23:00:00 17,8 15,6 17,0 21,0 22,0 19,7 13 7 29 16 ZW 1019,4 45 0 0,6
15.08.2017 22:00:00 19,6 16,1 18,3 21,8 22,1 19,7 23 12 45 25 WZW 1018,7 26 0 0,1
15.08.2017 21:00:00 21,2 17,0 20,3 22,9 22,1 19,7 14 8 21 12 ZW 1017,5 45 0 0,0
15.08.2017 20:00:00 21,9 16,7 21,6 23,9 22,0 19,7 11 6 25 13 WZW 1017,1 49 0 0,0
15.08.2017 19:00:00 22,2 16,2 22,2 25,0 21,8 19,7 17 9 32 18 ZW 1016,7 50 20 0,0
15.08.2017 18:00:00 22,3 16,7 23,2 25,2 21,6 19,7 14 7 36 19 ZW 1016,6 49 0 0,0
15.08.2017 17:00:00 23,0 15,8 24,6 26,3 21,2 19,7 23 13 44 24 ZW 1016,8 55 21 0,0
15.08.2017 16:00:00 23,7 16,7 25,4 24,6 21,0 19,7 23 13 39 21 ZW 1016,3 50 10 0,0
15.08.2017 15:00:00 23,1 17,0 24,4 23,5 20,8 19,6 7 4 13 7 Z 1016,0 51 0 0,0
15.08.2017 14:00:00 22,0 17,5 23,3 23,2 20,6 19,6 10 6 18 10 Z 1017,1 40 2 0,0
15.08.2017 13:00:00 21,3 18,1 21,8 22,4 20,4 19,6 9 5 13 7 Z 1017,4 35 3 0,0
15.08.2017 12:00:00 20,1 17,1 20,3 21,3 20,3 19,6 9 5 29 15 NO 1016,6 40 0 0,3
15.08.2017 11:00:00 20,5 16,4 22,0 20,6 20,2 19,6 6 4 13 7 ZW 1016,1 46 8 0,0
15.08.2017 10:00:00 17,3 14,7 17,4 19,5 20,3 19,6 2 1 12 7 NW 1016,3 29 6 0,0
15.08.2017 09:00:00 16,7 15,0 17,1 18,4 20,4 19,6 5 3 8 4 O 1016,0 18 24 0,0
15.08.2017 08:00:00 15,3 14,2 15,5 17,6 20,7 19,5 5 3 12 7 NO 1015,9 16 52 0,0
15.08.2017 07:00:00 14,7 14,3 13,7 17,4 21,0 19,5 7 4 10 5 NNO 1016,2 11 0 0,0
15.08.2017 06:00:00 14,9 14,4 13,3 17,9 21,3 19,5 5 3 11 6 NNO 1016,5 14 0 0,0
15.08.2017 05:00:00 15,2 14,7 13,9 18,3 21,6 19,5 6 3 11 6 N 1016,7 15 0 0,0
15.08.2017 04:00:00 15,6 14,7 13,3 18,9 21,9 19,4 6 3 12 6 ONO 1016,5 27 0 0,0
15.08.2017 03:00:00 16,6 15,2 15,2 19,5 22,2 19,4 8 4 12 7 NNO 1016,6 33 0 0,0
15.08.2017 02:00:00 17,2 14,8 15,0 20,2 22,5 19,4 4 2 8 4 NNO 1016,6 38 0 0,0
15.08.2017 01:00:00 19,1 15,0 15,9 20,9 22,9 19,4 5 3 9 5 ONO 1016,7 70 0 0,0
15.08.2017 00:00:00 19,2 14,9 16,1 21,9 23,2 19,4 4 2 11 6 ZO 1016,9 44 0 0,0
14.08.2017 23:00:00 20,2 15,1 16,9 23,0 23,5 19,4 2 1 10 5 O 1016,9 53 0 0,0
14.08.2017 22:00:00 20,2 15,0 17,4 24,5 23,6 19,3 7 4 11 6 ZO 1016,8 54 0 0,0
14.08.2017 21:00:00 22,4 14,4 19,4 26,6 23,6 19,3 7 4 13 7 ZZO 1016,2 57 43 0,0
14.08.2017 20:00:00 24,9 12,9 25,8 28,9 23,4 19,4 7 4 20 11 Z 1015,9 59 60 0,0
14.08.2017 19:00:00 25,2 15,0 29,0 30,2 23,0 19,4 16 9 23 12 Z 1016,0 53 54 0,0
14.08.2017 18:00:00 25,8 14,8 30,7 30,4 22,5 19,4 14 8 22 12 Z 1016,2 57 41 0,0
14.08.2017 17:00:00 25,5 16,0 29,8 30,7 21,8 19,4 11 6 19 10 ZZO 1016,5 59 25 0,0
14.08.2017 16:00:00 26,5 16,2 31,4 30,7 21,1 19,4 6 3 14 8 ZZO 1016,9 47 37 0,0
14.08.2017 15:00:00 24,6 14,4 30,2 30,1 20,3 19,4 8 4 16 9 WZW 1017,5 47 51 0,0
14.08.2017 14:00:00 23,6 14,9 27,8 28,1 19,6 19,4 5 3 16 9 N 1018,1 48 57 0,0
14.08.2017 13:00:00 22,6 14,4 26,9 25,7 19,0 19,4 9 5 14 7 NO 1018,9 45 60 0,0
14.08.2017 12:00:00 21,2 14,3 23,7 22,5 18,7 19,4 6 3 13 7 NNO 1019,3 40 49 0,0
14.08.2017 11:00:00 18,3 12,5 19,8 20,3 18,5 19,4 6 3 16 8 NNO 1020,1 35 53 0,0
14.08.2017 10:00:00 17,0 12,4 17,2 17,4 18,5 19,4 9 5 18 10 NO 1020,3 30 56 0,0
14.08.2017 09:00:00 14,0 11,7 13,2 15,3 18,7 19,4 7 4 16 9 NO 1020,9 20 53 0,0
14.08.2017 08:00:00 11,5 11,0 11,5 15,1 18,9 19,3 6 4 14 7 NO 1021,0 9 8 0,0
14.08.2017 07:00:00 11,1 10,8 11,0 15,0 19,2 19,3 5 3 9 5 NNO 1021,1 6 0 0,0
14.08.2017 06:00:00 11,0 10,5 10,3 15,2 19,5 19,3 7 4 15 8 NO 1020,9 9 0 0,0
14.08.2017 05:00:00 11,4 10,9 10,5 15,5 19,8 19,3 9 5 13 7 NNO 1021,0 25 0 0,0
14.08.2017 04:00:00 11,3 10,6 10,5 15,9 20,1 19,3 9 5 13 7 NNO 1021,4 23 0 0,0
14.08.2017 03:00:00 11,9 10,9 10,8 16,4 20,5 19,3 8 5 13 7 NNO 1021,7 32 0 0,0
14.08.2017 02:00:00 12,8 11,3 11,3 17,0 20,8 19,2 10 5 14 7 NNO 1021,6 39 0 0,0
14.08.2017 01:00:00 13,5 11,2 11,5 17,7 21,2 19,2 7 4 11 6 NNO 1021,7 50 0 0,0
14.08.2017 00:00:00 14,0 11,2 11,5 18,6 21,6 19,2 5 3 9 5 O 1021,9 70 0 0,0

tt = temperatuur
td = dauwpunt
tt 5cm = temperatuur 5cm
tt -5cm = temperatuur -5cm
tt -20cm = temperatuur -20cm
tt -100cm = temperatuur -100cm
ff = windsnelheid
fx = windstoten
dd = windrichting
ppp = luchtdruk
vv = zicht
sd = Zonneschijnduur
rr = neerslag

Weerstations in de omgeving